[[{"header":{"parameterUnit":"m.s-1","parameterCategory":1,"la1":30.2991,"la2":30.254,"lo1":-89.0895,"lo2":-89.0444,"dy":0.0017,"dx":0.0017,"nx":28,"ny":28,"refTime":"2024-08-12T21:00:00:Z","depth":0,"parameterNumber":2,"parameterNumberName":"U-component_of_WINDS"},"data":[0,0,0,0,0,0,0,0,0,0,0,0,0,0,0,0,0,0,0,0,0,0,0,0,0,0,0,0,0,0,0,0,0,0,0,0,0,0,0,0,0,0,0,0,0,0,0,0,0,0,0,0,0,0,0,0,0,0,4.578,4.5782,0,4.5913,4.5915,4.5916,4.5857,4.5854,4.585,4.5847,4.5984,4.599,4.5997,0,0,0,0,0,0,0,0,0,0,0,0,0,4.5474,4.548,4.578,4.5782,4.5784,4.5913,4.5915,4.5917,4.5857,4.5853,4.5849,4.5846,4.5981,4.5989,4.5997,0,0,0,0,0,0,0,0,0,0,0,0,0,4.5607,4.5482,4.578,4.577,4.577,4.5913,4.5915,4.5917,4.5858,4.5853,4.5848,4.5844,4.5979,4.5988,4.5998,4.6159,0,0,4.6029,4.6033,0,0,0,0,0,0,0,0,4.56,4.5618,4.5769,4.5771,4.5771,4.5863,4.5857,4.5998,4.5859,4.5825,4.5847,4.5841,4.5948,4.596,4.5996,4.6166,4.6171,4.603,4.6036,4.604,4.6043,0,0,0,0,0,0,0,4.559,4.5612,4.5833,4.5772,4.5773,4.5758,4.5771,4.5883,4.5912,4.5827,4.5823,4.584,4.5947,4.5986,4.5998,4.6173,4.603,4.6039,4.6045,4.6049,4.648,4.6485,0,0,0,0,0,0,4.5581,4.5605,4.5829,4.5837,4.5672,4.5768,4.5783,4.5839,4.5911,4.5917,4.5844,4.5837,4.5971,4.5987,4.6003,4.6194,4.604,4.605,4.6056,4.6474,4.6481,4.6487,0,0,0,0,0,0,4.5575,4.5602,4.5823,4.572,4.5747,4.5778,4.5842,4.5844,4.5883,4.5923,4.5928,4.5879,4.5968,4.5989,4.612,4.6198,4.6054,4.6063,4.6468,4.6477,4.6484,4.6579,0,0,0,0,0,0,4.5567,4.56,4.5662,4.5722,4.5753,4.5939,4.5847,4.585,4.59,4.5892,4.5957,4.5963,4.5966,4.6106,4.613,4.6209,4.6071,4.6461,4.6472,4.6481,4.6569,4.6589,4.6607,0,0,0,0,0,4.5556,4.5684,4.5665,4.5692,4.5831,4.5943,4.5961,4.5961,4.5907,4.5969,4.5995,4.5961,4.6186,4.612,4.6147,4.623,4.6456,4.6469,4.6481,4.656,4.6585,4.6606,0,0,0,0,0,0,4.5632,4.5691,4.5671,4.5823,4.5878,4.5933,4.6011,4.5988,4.6061,4.605,4.6047,4.6063,4.6198,4.6228,4.6153,4.6388,4.6313,4.6331,4.6364,4.6388,4.6406,4.6396,4.608,0,0,0,0,0,4.5667,4.5754,4.5801,4.5929,4.5958,4.598,4.603,4.6025,4.6083,4.6106,4.6141,4.6199,4.6282,4.6337,4.6416,4.6573,4.6586,4.6644,4.6663,4.6678,4.6693,4.6777,4.6802,4.6527,4.6527,4.6527,0,0,4.5739,4.5782,4.5837,4.5946,4.5988,4.6078,4.6001,4.6099,4.6165,4.6121,4.6246,4.6275,4.6338,4.6483,4.6548,4.6512,4.6772,4.6694,4.6706,4.6713,4.6792,4.6818,4.6841,4.6535,4.6534,4.6532,0,0,4.5915,4.5957,4.6068,4.6112,4.6177,4.6191,4.6218,4.6276,4.6293,4.6419,4.6387,4.6466,4.661,4.6656,4.6699,4.6892,4.6863,4.6918,4.7015,4.7097,4.7118,4.7138,4.7204,4.7229,4.6933,4.6933,4.6934,0,4.5996,4.6129,4.6128,4.6228,4.6276,4.6241,4.6352,4.6395,4.6484,4.6517,4.6475,4.6654,4.6695,4.6848,4.6895,4.6932,4.6961,4.6909,4.7116,4.7135,4.7153,4.7216,4.7241,4.6939,4.6939,4.6938,4.6938,0,4.6225,4.6318,4.6399,4.6485,4.6542,4.6648,4.6662,4.672,4.6711,4.6729,4.6857,4.6904,4.6991,4.7028,4.702,4.7181,4.7155,4.7115,4.7038,4.7185,4.7244,4.7269,4.6948,4.6946,4.6944,4.6943,0,0,4.6452,4.6534,4.6564,4.6602,4.6671,4.6743,4.6847,4.6931,4.6981,4.7043,4.7129,4.7251,4.7213,4.7261,4.7259,4.733,4.7477,4.728,4.7282,4.7313,4.7654,4.7683,4.7711,4.7459,4.7464,4.7468,4.7648,0,4.6631,4.6813,4.6814,4.698,4.7065,4.7033,4.7123,4.7175,4.7194,4.7269,4.729,4.7376,4.7321,4.735,4.7419,4.7445,4.7545,4.7432,4.7538,4.7542,4.752,4.7743,4.7774,4.7941,4.7672,4.7676,4.7679,0,4.6865,4.6934,4.7109,4.7164,4.72,4.7281,4.7357,4.743,4.7488,4.7497,4.755,4.7536,4.7641,4.7563,4.7706,4.7629,4.7672,4.7691,4.7698,4.7706,4.7617,4.7755,4.7995,4.802,4.7716,4.7713,4.771,0,4.701,4.7147,4.7268,4.7302,4.737,4.7428,4.7459,4.7512,4.7562,4.763,4.7662,4.7742,4.7784,4.7846,4.7853,4.7796,4.7997,4.792,4.8006,4.8006,4.8048,4.8045,4.8297,4.808,4.808,4.8079,4.8079,0,4.7209,4.7317,4.7334,4.7409,4.7528,4.7529,4.7647,4.7673,4.7721,4.7799,4.7777,4.7851,4.7857,4.7933,4.794,4.8056,4.8077,4.8086,4.8086,4.8087,4.8085,4.8113,4.8101,4.8086,4.8085,4.8083,4.8082,0,4.7391,4.7407,4.7537,4.7591,4.7607,4.7693,4.7738,4.7809,4.7826,4.7926,4.795,4.7977,4.8065,4.8079,4.8183,4.8187,4.8326,4.8316,4.8306,4.8304,4.8389,4.8379,4.8666,4.8702,4.8464,4.8466,4.8468,0,4.7516,4.7598,4.766,4.7711,4.7745,4.7828,4.7878,4.7882,4.7936,4.8008,4.807,4.8156,4.8224,4.8367,4.8396,4.8475,4.8464,4.8559,4.8476,4.8474,4.8463,4.8457,4.8464,4.8575,4.8577,4.8579,4.8581,0,4.7735,4.7739,4.7813,4.789,4.7952,4.8013,4.807,4.8113,4.8124,4.8186,4.8276,4.8329,4.8435,4.852,4.8598,4.863,4.8607,4.8607,4.8631,4.8631,4.8621,4.8625,4.8347,4.86,4.8598,4.8597,4.8596,4.8595,4.7891,4.7961,4.8015,4.8099,4.8142,4.8196,4.8265,4.829,4.8365,4.8451,4.8449,4.8547,4.8602,4.8704,4.8741,4.8818,4.8787,4.8822,4.883,4.8838,4.8845,4.8611,4.8832,4.8832,4.8831,4.8831,4.883,0,4.8106,4.814,4.8216,4.8297,4.8362,4.8336,4.8397,4.8453,4.854,4.8593,4.8661,4.8763,4.8845,4.888,4.8961,4.9015,4.9007,4.9036,4.9031,4.9038,4.8869,4.8839,4.9041,4.9041,4.9041,4.9041,4.9041,4.9041,4.8226,4.8343,4.8353,4.8491,4.8523,4.8619,4.8656,4.8706,4.8747,4.8863,4.893,4.8953,4.8998,4.9082,4.9155,4.9164,4.9193,4.9227,4.923,4.9072,4.905,4.903,4.9001,4.9234,4.9234,4.9392,4.9393,4.9395]},{"header":{"parameterUnit":"m.s-1","parameterCategory":1,"la1":30.2991,"la2":30.254,"lo1":-89.0895,"lo2":-89.0444,"dy":0.0017,"dx":0.0017,"nx":28,"ny":28,"refTime":"2024-08-12T21:00:00:Z","depth":0,"parameterNumber":3,"parameterNumberName":"V-component_of_WINDS"},"data":[0,0,0,0,0,0,0,0,0,0,0,0,0,0,0,0,0,0,0,0,0,0,0,0,0,0,0,0,0,0,0,0,0,0,0,0,0,0,0,0,0,0,0,0,0,0,0,0,0,0,0,0,0,0,0,0,0,0,1.5731,1.5731,0,1.5725,1.5725,1.5724,1.5683,1.5682,1.5681,1.568,1.5674,1.5675,1.5675,0,0,0,0,0,0,0,0,0,0,0,0,0,1.5706,1.5707,1.5731,1.5731,1.5731,1.5725,1.5725,1.5724,1.5683,1.5682,1.5681,1.5679,1.5674,1.5675,1.5676,0,0,0,0,0,0,0,0,0,0,0,0,0,1.571,1.5707,1.5731,1.5709,1.5707,1.5725,1.5725,1.5724,1.5683,1.5682,1.568,1.5679,1.5673,1.5675,1.5676,1.5713,0,0,1.5679,1.568,0,0,0,0,0,0,0,0,1.571,1.5711,1.5713,1.5711,1.5709,1.5703,1.5714,1.5721,1.5684,1.5693,1.568,1.5678,1.5685,1.5685,1.5687,1.5713,1.5713,1.5679,1.568,1.5681,1.5681,0,0,0,0,0,0,0,1.571,1.5711,1.5728,1.5713,1.571,1.57,1.5699,1.5715,1.5697,1.5692,1.5689,1.5688,1.5683,1.5686,1.5687,1.5713,1.5679,1.568,1.5681,1.5682,1.5767,1.5769,0,0,0,0,0,0,1.5713,1.5711,1.5729,1.5728,1.5706,1.5701,1.57,1.5706,1.5697,1.5694,1.569,1.5686,1.5685,1.5685,1.5686,1.5729,1.5681,1.5682,1.5682,1.5766,1.5768,1.5769,0,0,0,0,0,0,1.5712,1.5715,1.5729,1.5719,1.572,1.5703,1.5711,1.5707,1.571,1.5696,1.5692,1.5696,1.5684,1.5685,1.5707,1.5728,1.5682,1.5683,1.5764,1.5766,1.5769,1.5815,0,0,0,0,0,0,1.5712,1.5715,1.5729,1.572,1.5721,1.575,1.5712,1.5708,1.5712,1.5707,1.57,1.5698,1.5683,1.5705,1.5708,1.5729,1.5684,1.5762,1.5765,1.5768,1.5811,1.5819,1.5825,0,0,0,0,0,1.5711,1.5743,1.573,1.5733,1.5738,1.5751,1.5752,1.5734,1.5714,1.5728,1.5718,1.5698,1.5725,1.5708,1.571,1.5732,1.5761,1.5764,1.5768,1.5808,1.5817,1.5825,0,0,0,0,0,0,1.5757,1.5742,1.5727,1.5757,1.5755,1.5744,1.5761,1.5744,1.5748,1.5744,1.5721,1.572,1.5745,1.5741,1.5721,1.5767,1.5739,1.5743,1.5769,1.5778,1.5784,1.5785,1.5685,0,0,0,0,0,1.577,1.5781,1.5768,1.5795,1.5795,1.5778,1.5783,1.5769,1.5767,1.5766,1.5759,1.5757,1.5765,1.5771,1.5778,1.581,1.5808,1.5827,1.5833,1.5839,1.5843,1.5858,1.5866,1.5781,1.5781,1.5781,0,0,1.5798,1.5791,1.58,1.5804,1.5801,1.5813,1.5778,1.5793,1.5801,1.5769,1.5788,1.5783,1.5779,1.5806,1.5818,1.5804,1.5865,1.5843,1.5848,1.5849,1.5863,1.5871,1.5878,1.5783,1.5783,1.5783,0,0,1.5855,1.5851,1.5873,1.5871,1.5867,1.5855,1.586,1.5851,1.5846,1.5865,1.584,1.585,1.5865,1.5863,1.5864,1.5918,1.5899,1.5921,1.5956,1.5972,1.5978,1.5984,1.6003,1.601,1.5925,1.5925,1.5925,0,1.589,1.5908,1.5887,1.5903,1.5905,1.5874,1.5896,1.5895,1.5893,1.5895,1.5879,1.5896,1.5892,1.5917,1.593,1.5932,1.5937,1.5922,1.5979,1.5985,1.599,1.6007,1.6014,1.5928,1.5928,1.5927,1.5927,0,1.5951,1.5963,1.5981,1.598,1.5984,1.6003,1.5984,1.5991,1.5976,1.5966,1.5985,1.5979,1.5983,1.5988,1.5974,1.6011,1.6002,1.5983,1.5954,1.6001,1.6017,1.6024,1.5932,1.5931,1.593,1.5929,0,0,1.6038,1.6023,1.603,1.6028,1.6021,1.603,1.6046,1.605,1.6056,1.6055,1.6068,1.608,1.6062,1.6063,1.6048,1.6062,1.6104,1.6041,1.604,1.6052,1.6144,1.6159,1.6167,1.6091,1.6093,1.6094,1.6144,0,1.6092,1.612,1.6101,1.6131,1.6142,1.6112,1.6127,1.6123,1.6114,1.6121,1.6111,1.6119,1.6095,1.6095,1.6107,1.6097,1.6122,1.6093,1.6103,1.6104,1.6105,1.6175,1.6191,1.6239,1.615,1.6151,1.6152,0,1.6159,1.6161,1.6193,1.6181,1.6185,1.6198,1.6199,1.6207,1.6202,1.6194,1.6194,1.6176,1.619,1.6162,1.6182,1.6162,1.6165,1.616,1.6162,1.6162,1.6131,1.6177,1.6254,1.6261,1.6162,1.6161,1.616,0,1.6219,1.6229,1.6248,1.6248,1.6236,1.6245,1.6241,1.6234,1.6237,1.6238,1.6239,1.6242,1.6244,1.6246,1.6228,1.6209,1.625,1.622,1.6243,1.6244,1.6254,1.6253,1.6332,1.6256,1.6256,1.6256,1.6256,0,1.6281,1.6302,1.6275,1.6287,1.6309,1.6286,1.6308,1.63,1.6294,1.6304,1.6279,1.6289,1.6264,1.6271,1.6258,1.6276,1.6277,1.627,1.6266,1.6273,1.6273,1.6274,1.627,1.6258,1.6257,1.6257,1.6256,0,1.6352,1.6335,1.6354,1.634,1.6337,1.6353,1.6341,1.6352,1.634,1.6353,1.6354,1.6336,1.6343,1.6325,1.6329,1.632,1.6346,1.6337,1.6347,1.6345,1.6369,1.6366,1.645,1.646,1.6378,1.6379,1.638,0,1.6393,1.6408,1.6395,1.6399,1.6396,1.6403,1.6406,1.6384,1.6387,1.6382,1.6393,1.6397,1.64,1.6412,1.6399,1.6402,1.6392,1.6421,1.6392,1.6398,1.6392,1.6391,1.6392,1.6427,1.6428,1.6429,1.643,0,1.6467,1.6458,1.6462,1.6463,1.6466,1.6466,1.6464,1.6469,1.6446,1.6451,1.6457,1.6459,1.6462,1.6467,1.6467,1.6461,1.6442,1.6439,1.6444,1.6451,1.6456,1.6453,1.6363,1.6437,1.6436,1.6436,1.6435,1.6435,1.6524,1.6535,1.6527,1.6533,1.6529,1.6527,1.6536,1.6524,1.6529,1.653,1.6517,1.6526,1.6519,1.6516,1.6513,1.6519,1.6506,1.6514,1.6516,1.6518,1.6522,1.6455,1.6519,1.6519,1.6518,1.6518,1.6518,0,1.6597,1.659,1.6595,1.6592,1.6596,1.6576,1.6573,1.6577,1.6585,1.658,1.6583,1.659,1.6593,1.658,1.6582,1.659,1.658,1.6591,1.659,1.6589,1.6534,1.6529,1.6598,1.6598,1.6598,1.6598,1.6598,1.6598,1.6635,1.6652,1.6642,1.6656,1.6649,1.6657,1.6657,1.6655,1.6651,1.6659,1.6662,1.6653,1.6645,1.6645,1.6648,1.6644,1.6645,1.6659,1.6652,1.6601,1.6593,1.6586,1.6581,1.666,1.666,1.6706,1.6706,1.6707]}]]